www.pogodaiklimat.ru
ПОГОДА в Клеарфилде
Время
и дата
10:34 30.11
10:54 30.11
11:54 30.11
12:14 30.11
12:21 30.11
12:25 30.11
12:38 30.11
12:54 30.11
13:54 30.11
14:10 30.11
14:47 30.11
14:54 30.11
15:18 30.11
15:54 30.11
16:54 30.11
17:54 30.11
18:54 30.12
19:54 30.11
20:54 30.11
21:54 30.11
22:54 30.11
23:54 30.11
00:54 01.12
01:11 01.12
01:17 01.12
01:24 01.12
01:29 01.12
01:54 01.12
02:54 01.12
03:54 01.12
04:54 01.12
05:54 01.12
06:54 01.12
07:54 01.12
08:54 01.12
09:54 01.12
10:11 01.12
10:54 01.12
11:54 01.12
12:54 01.12
13:54 01.12
14:54 01.12
15:54 01.12
16:37 01.12
16:54 01.12
17:54 01.12
18:54 01.12
19:54 01.12
Ветер
(напр.,м/с)
Видим. Явления Облачность Т
(С)
Тd
(С)
f
(%)
Тe
(С)
Тes
(С)
Комфортность P
(гПа)
Po
(гПа)
Тmin
(С)
Tmax
(С)
R
(мм)
R24
(мм)
S
(см)
нст 2 10 км слабый дождь, дымка 10/10 270 m
[Ns]
+8.3 +6.7 90 +6 +6 948.9
ЮЗ 5
{8}
6 км слабый дождь, дымка 10/10 240 m
[Ns]
+8.3 +7.2 93 +5 +5 1002.8 948.5
Ю 5
{8}
10 км слабый дождь, дымка 10/10 240 m
[Ns]
+8.9 +8.3 96 +5 +5 1001.7 947.6
ЮЗ 8
{13}
3 км сильный дождь, дымка 10/10 210 m
[Ns]
+9.4 +8.3 93 +5 +5 948.5
З 14
{20}
3 км дождь, дымка 10/10 210 m
[Ns]
+9.4 +7.2 86 +4 +4 949.5
З 11
{21}
5 км дождь 10/10 210 m
[Ns]
+8.3 +5.6 83 +3 +3 949.5
З 11
{19}
8 км слабый дождь 10/10 240 m
[Ns]
+6.7 +3.3 79 +1 +1 950.1
ЮЗ 7
{13}
16 км слабый дождь 10/10 1320 m
[Ns]
+6.1 +3.3 82 +1 +1 1005.6 951.1 +5.6 +10.0 7.1
ЮЗ 7
{13}
16 км 10/8 720 m
[Ac]
+6.1 +2.2 76 +1 +1 1007.1 952.4
З 9
{14}
16 км 10/10 720 м +5.6 +0.6 70 0 0 953.3
З 7
{12}
16 км 10/10 780 м +4.4 -0.6 70 -1 -1 954.3
З 5
{11}
16 км 10/10 720 м +4.4 0.0 73 0 0 1009.3 954.6
З 8
{14}
16 км 8/8 720 м +3.9 -2.2 64 -2 -2 955.3
З 5
{12}
16 км 8/8 1260 м +2.8 -3.3 64 -2 -2 1011.1 955.9
З 7
{13}
16 км 8/8 1200 м +2.8 -4.4 59 -3 -3 1012.5 957.2
З 10
{14}
16 км 10/10 1230 м +1.7 -5.6 58 -5 -5 1014.1 958.8
З 7
{14}
16 км 10/10 1350 м 0.0 -7.2 58 -7 -7 1015.6 960.1 +6.1
З 8
{13}
16 км 10/10 1170 м -1.1 -8.3 58 -8 -8 1017.0 961.3
З 4
{9}
16 км 10/10 1320 м -1.1 -8.3 58 -6 -6 1017.0 961.3
З 6
{9}
16 км 10/10 1410 м -1.1 -7.8 60 -8 -8 1016.5 961.0
З 6
{10}
16 км 10/10 1380 м -1.1 -7.8 60 -8 -8 1016.6 961.0
З 8
{11}
13 км слабый снег 10/10 990 m
[Ns]
-1.7 -6.7 69 -9 -9 1017.3 961.7
З 9
{13}
14 км слабый снег 10/10 1110 m
[Ns]
-1.1 -8.3 58 -9 -9 1018.2 962.3 -1.7
З 10
{15}
3 км слабый снег 10/10 630 m
[Ns]
-2.8 -6.7 74 -12 -12 962.6
З 9
{15}
1 км слабый снег 10/10 420 m
[Ns]
-3.3 -6.1 81 -12 -12 963.0
З 7
{13}
2 км слабый снег 10/10 480 m
[Ns]
-3.3 -6.1 81 -11 -11 963.0
З 5
{12}
5 км слабый снег 10/10 420 m
[Ns]
-2.8 -6.7 74 -9 -9 963.3
З 8
{12}
16 км 10/10 1500 м -2.2 -8.9 60 -10 -10 1019.3 963.3
З 9
{14}
16 км 10/10 1350 м -2.2 -10.0 55 -10 -10 1020.4 964.2
ЮЗ 6
{12}
16 км 10/10 1650 м -2.8 -9.4 60 -10 -10 1021.4 964.9
ЮЗ 6
{11}
16 км 10/10 1110 м -2.8 -10.0 58 -10 -10 1022.8 966.5
ЮЗ 7
{11}
16 км 10/10 1020 м -2.8 -9.4 60 -10 -10 1024.2 967.8
З 8
{11}
16 км 10/10 900 м -2.8 -9.4 60 -11 -11 1025.6 969.0 -3.3 -1.1 7.1
З 6
{10}
16 км 10/10 990 м -2.8 -9.4 60 -10 -10 1027.2 970.3
ЮЗ 7
{11}
16 км 10/10 930 м -2.8 -8.9 63 -10 -10 1028.3 971.3
З 4
{10}
16 км 10/10 870 м -2.2 -8.9 60 -8 -8 1029.1 971.9
З 3
{8}
16 км 10/10 900 м -2.2 -8.3 63 -7 -7 972.2
З 5
{9}
16 км 10/10 960 м -1.7 -8.3 61 -8 -8 1029.7 972.6
З 6
{11}
16 км 10/10 1050 м 0.0 -7.8 56 -6 -6 1030.0 973.2
СЗ 7
{11}
16 км 8/8 1020 м 0.0 -8.3 54 -6 -6 1029.9 972.9 -3.3 +0.6
нст 3
{11}
16 км 8/8 990 м 0.0 -7.8 56 -4 -3 1030.6 973.5
З 5 16 км 10/10 960 м -0.6 -7.8 58 -6 -6 1031.5 974.2
З 4 16 км 10/10 960 м -1.1 -7.8 60 -6 -6 1032.2 974.8
З 3 16 км 10/10 870 м -1.1 -7.8 60 -5 -5 975.1
З 4 16 км 10/10 870 м -1.1 -7.8 60 -6 -6 1032.4 975.1
З 3 16 км 10/10 840 м -1.7 -7.8 63 -6 -6 1032.8 975.4
З 2 16 км 10/10 840 м -1.7 -7.8 63 -5 -5 1032.7 975.1 -1.7 +0.6
З 2 16 км 5/5 810 м -2.8 -8.3 66 -6 -6 1032.9 975.4
Местоположение метеостанции Clearfield-Lawrence Airport: широта 41.0467 долгота -78.4117 высота над уровнем моря 462 м.
В архиве по умолчанию представлена погода в Клеарфилде за последние 1-2 суток. Обновление информации о фактической погоде в базе происходит ежечасно! Архивные данные за месяц целиком и за предыдущие месяцы Вы можете получить, выбрав интересующий диапазон дат из раскрывающегося списка и нажав кнопку "Ввод!".
Внимание! Архив погоды МЕТАР в базе сайта по станциям, не включенным в климатический монитор, хранится не более 60 дней. Нет смысла пытаться выбрать более раннюю дату.
*Определитесь, кто Вы:
Внимание! Время в таблицах - местное (без учета летнего времени). Для получения всемирного времени необходимо вычесть поправку, которая равна -5 ч.
Смотрите также архив погоды в соседних городах и на ближайших метеорологических станциях:
Партнеры нашего сайта:      
Пояснения к столбцам:
  • Ветер - указаны скорость ветра в м/с - средняя за 10 мин, порывы в срок и между сроками (в фигурных скобках) и направление, откуда дует ветер: С - северный,
  • СВ - северо-восточный, В - восточный, ЮВ - юго-восточный, Ю - южный, ЮЗ - юго-западный, З - западный, СЗ - северо-западный.
  • Видимость - горизонтальная дальность видимости в метрах или километрах. При видимости от 1 до 10 км при отсутствии осадков обычно наблюдается дымка, при ухудшении видимости до 1 км и менее - туман. В сухую погоду видимость может ухудшаться дымом, пылью или мглою.
  • Явления - указаны атмосферные явления, наблюдавшиеся в срок или в последний час перед сроком; фигурными скобками обозначены явления, наблюдавшиеся между сроками (за 1-3 часа до срока); квадратными скобками обозначены град или гололедные отложения с указанием их диаметра в мм.
  • Облачность - указаны через наклонную черту общая и нижняя облачность в баллах и высота нижней границы облаков в метрах; квадратными скобками обозначены формы облаков: Ci - перистые, Cs - перисто-слоистые, Cc - перисто-кучевые, Ac - высококучевые, As - высокослоистые, Sc - слоисто-кучевые, Ns - слоисто-дождевые, Cu - кучевые, Cb - кучево-дождевые. Подробнее классификацию облаков см. в Атласе облаков (PDF).
  • T - Температура воздуха - температура, измеренная на высоте 2 м над землей.
  • Td - Температура точки росы - температура, при понижении до которой содержащийся в воздухе водяной пар достигнет насыщения.
  • f - Относительная влажность воздуха - влажноcть воздуха, измеренная на высоте 2 м над землей.
  • Te - Эффективная температура - температура, которую ощущает одетый по сезону человек в тени. Характеристика душности погоды. При расчете учитывается влияние влажности воздуха и скорости ветра на теплоощущения человека.
  • Tes - Эффективная температура на солнце - температура, которую ощущает человек, с поправкой на солнечный нагрев. Характеристика знойности погоды. Зависит от высоты солнца над горизонтом, облачности и скорости ветра. Ночью, в пасмурную погоду, а также при ветре 12 м/с и более поправка равна нулю.
  • P - Атмосферное давление - приведенное к уровню моря атмосферное давление.
  • Po - Атмосферное давление - измеренное на уровне метеостанции атмосферное давление.
  • Tmin - Минимальная температура - минимум температуры воздуха на высоте 2 м над землей.
  • Tmax - Максимальная температура - максимум температуры воздуха на высоте 2 м над землей.
  • R - Количество осадков - Количество выпавших осадков за период времени, мм. При наведении курсора мыши на число - период времени, за который выпало указанное количество осадков.
  • R24 - Количество осадков - Количество выпавших осадков за 24 часа, мм.
  • S - Снежный покров - Высота снежного покрова, см. При наведении курсора мыши на число - состояние снежного покрова и степень покрытия местности в баллах.